This is the latest recevied weather packets stored in our database for station/object KM4KBD. If no packets are shown the sender has not sent any weather packets the latest 10 day(s).
| Time | Temp. | Humidity | Pressure | Rain* | Wind** | Luminosity | Snow |
|---|---|---|---|---|---|---|---|
| 1777510587 | 15° C | 78% | 1018.5 hPa | 0 mm | - | 0 W/m² | - |
| 1777510283 | 15.56° C | 78% | 1018.3 hPa | 0 mm | - | 0 W/m² | - |
| 1777509980 | 15.56° C | 77% | 1018.4 hPa | 0 mm | - | 0 W/m² | - |
| 1777509676 | 15.56° C | 77% | 1018.1 hPa | 0 mm | - | 0 W/m² | - |
| 1777509373 | 15.56° C | 77% | 1018.1 hPa | 0 mm | - | 1 W/m² | - |
| 1777509070 | 16.11° C | 75% | 1018.1 hPa | 0 mm | - | 2 W/m² | - |
| 1777508767 | 16.11° C | 75% | 1018.1 hPa | 0 mm | - | 3 W/m² | - |
| 1777508464 | 16.67° C | 74% | 1017.9 hPa | 0 mm | - | 5 W/m² | - |
| 1777508161 | 17.22° C | 72% | 1017.9 hPa | 0 mm | - | 8 W/m² | - |
| 1777507857 | 17.22° C | 71% | 1017.7 hPa | 0 mm | - | 11 W/m² | - |
| 1777507555 | 17.22° C | 71% | 1017.7 hPa | 0 mm | - | 14 W/m² | - |
| 1777507251 | 17.22° C | 71% | 1017.8 hPa | 0 mm | - | 18 W/m² | - |
| 1777506949 | 17.78° C | 69% | 1017.7 hPa | 0 mm | - | 22 W/m² | - |
| 1777506646 | 17.78° C | 68% | 1017.4 hPa | 0 mm | - | 27 W/m² | - |
| 1777506342 | 17.78° C | 71% | 1017.6 hPa | 0 mm | - | 40 W/m² | - |
| 1777506038 | 17.78° C | 70% | 1017.6 hPa | 0 mm | - | 35 W/m² | - |
| 1777505733 | 18.33° C | 69% | 1017.4 hPa | 0 mm | - | 41 W/m² | - |
| 1777505431 | 18.89° C | 68% | 1017.7 hPa | 0 mm | - | 47 W/m² | - |
| 1777505128 | 18.33° C | 67% | 1017.6 hPa | 0 mm | - | 55 W/m² | - |
| 1777504825 | 18.33° C | 66% | 1017.7 hPa | 0 mm | - | 64 W/m² | - |
| 1777504522 | 18.33° C | 67% | 1017.8 hPa | 0 mm | - | 74 W/m² | - |
| 1777504217 | 18.33° C | 66% | 1018 hPa | 0 mm | - | 84 W/m² | - |
| 1777503913 | 18.33° C | 68% | 1017.9 hPa | 0 mm | - | 93 W/m² | - |
| 1777503609 | 18.33° C | 70% | 1017.7 hPa | 0 mm | - | 109 W/m² | - |
| 1777503307 | 18.33° C | 70% | 1017.9 hPa | 0 mm | - | 146 W/m² | - |
* Rain latest hour (hover to see other rain measurements)
** Current wind speed in m/s (hover to see current wind gust speed)